Datetime,babs370std,babs470std,babs520std,babs590std,babs660std,babs880std,babs950std,BC880,bsca530std
2022-01-01T19:00:00Z,NaN,NaN,NaN,NaN,NaN,NaN,NaN,NaN,5.278
2022-01-01T20:00:00Z,3.076,1.424,1.301,1.172,1.018,0.637,0.628,81.932,5.138
2022-01-01T21:00:00Z,2.481,1.496,1.336,1.157,1.008,0.753,0.669,96.960,4.631
2022-01-01T22:00:00Z,2.257,1.436,1.269,1.091,0.943,0.657,0.579,84.557,4.020
2022-01-01T23:00:00Z,2.104,1.344,1.190,1.016,0.878,0.639,0.568,82.246,4.436
2022-01-02T00:00Z:00,2.079,1.369,1.199,1.018,0.883,0.612,0.547,78.798,4.022
2022-01-02T01:00:00Z,2.123,1.416,1.243,1.048,0.920,0.635,0.591,81.698,4.994
2022-01-02T02:00:00Z,2.169,1.437,1.253,1.056,0.929,0.714,0.651,91.915,4.465
2022-01-02T03:00:00Z,2.183,1.501,1.309,1.105,0.959,0.702,0.646,90.343,3.871
2022-01-02T04:00:00Z,2.082,1.434,1.253,1.047,0.897,0.580,0.511,74.710,5.103
2022-01-02T05:00:00Z,2.075,1.423,1.234,1.060,0.913,0.784,0.708,100.847,4.919
2022-01-02T06:00:00Z,2.128,1.468,1.284,1.081,0.930,0.684,0.609,88.028,5.301
2022-01-02T07:00:00Z,2.221,1.541,1.339,1.138,0.971,0.712,0.642,91.671,5.729
2022-01-02T08:00:00Z,2.236,1.563,1.364,1.155,0.992,0.732,0.665,94.217,6.282
2022-01-02T09:00:00Z,2.617,1.829,1.601,1.352,1.185,0.922,0.848,118.623,7.506
2022-01-02T10:00:00Z,2.805,2.018,1.758,1.497,1.297,0.960,0.882,123.595,7.025
2022-01-02T11:00:00Z,3.163,2.263,1.979,1.664,1.466,1.026,0.965,132.106,7.133
2022-01-02T12:00:00Z,3.223,2.351,2.055,1.733,1.523,1.084,1.018,139.529,7.218
2022-01-02T13:00:00Z,3.242,2.357,2.061,1.747,1.526,1.114,1.027,143.375,7.178
2022-01-02T14:00:00Z,3.330,2.436,2.133,1.809,1.571,1.158,1.060,149.092,7.050
2022-01-02T15:00:00Z,3.418,2.511,2.195,1.872,1.629,1.239,1.138,159.403,7.741
2022-01-02T16:00:00Z,3.439,2.543,2.233,1.897,1.651,1.221,1.124,157.152,7.498
2022-01-02T17:00:00Z,3.460,2.567,2.249,1.921,1.665,1.255,1.147,161.473,7.877
2022-01-02T18:00:00Z,3.459,2.613,2.296,1.962,1.697,1.252,1.145,161.166,7.793
2022-01-02T19:00:00Z,3.494,2.625,2.301,1.975,1.698,1.278,1.163,164.522,7.109
2022-01-02T20:00:00Z,3.421,2.573,2.265,1.933,1.674,1.249,1.145,160.694,7.537
2022-01-02T21:00:00Z,3.289,2.480,2.182,1.869,1.620,1.225,1.117,157.670,6.956
2022-01-02T22:00:00Z,3.206,2.406,2.119,1.819,1.585,1.185,1.097,152.459,7.169
2022-01-02T23:00:00Z,3.098,2.356,2.075,1.768,1.548,1.151,1.062,148.186,6.769
2022-01-03T00:00Z:00,3.056,2.302,2.028,1.739,1.521,1.155,1.071,148.679,7.165
2022-01-03T01:00:00Z,2.925,2.225,1.966,1.678,1.457,1.053,0.975,135.523,6.604
2022-01-03T02:00:00Z,2.874,2.171,1.911,1.636,1.433,1.081,1.000,139.128,6.966
2022-01-03T03:00:00Z,2.716,2.060,1.816,1.551,1.364,1.030,0.951,132.615,6.721
2022-01-03T04:00:00Z,2.621,1.956,1.726,1.488,1.303,1.026,0.949,132.018,6.527
2022-01-03T05:00:00Z,2.260,1.714,1.515,1.300,1.133,0.800,0.741,102.968,6.567
2022-01-03T06:00:00Z,1.919,1.364,1.201,1.032,0.930,0.765,0.712,98.424,6.329
2022-01-03T07:00:00Z,1.485,1.071,0.936,0.797,0.722,0.539,0.523,69.358,5.013
2022-01-03T08:00:00Z,1.316,0.950,0.832,0.700,0.618,0.418,0.383,53.773,5.918
2022-01-03T09:00:00Z,1.112,0.823,0.717,0.625,0.535,0.442,0.384,56.825,4.515
2022-01-03T10:00:00Z,0.971,0.711,0.621,0.566,0.439,0.401,0.304,51.595,4.631
2022-01-03T11:00:00Z,1.034,0.744,0.649,0.588,0.457,0.401,0.318,51.559,4.454
2022-01-03T12:00:00Z,1.015,0.728,0.647,0.580,0.462,0.434,0.345,55.820,3.435
2022-01-03T13:00:00Z,0.963,0.695,0.608,0.545,0.444,0.424,0.344,54.589,3.135
2022-01-03T14:00:00Z,0.945,0.687,0.606,0.528,0.438,0.308,0.265,39.591,2.708
2022-01-03T15:00:00Z,0.916,0.669,0.583,0.510,0.436,0.332,0.299,42.703,2.705
2022-01-03T16:00:00Z,0.838,0.618,0.542,0.459,0.404,0.253,0.240,32.622,2.598
2022-01-03T17:00:00Z,0.803,0.574,0.510,0.428,0.386,0.253,0.246,32.572,NaN
2022-01-03T18:00:00Z,0.793,0.575,0.507,0.426,0.384,0.258,0.257,33.261,NaN
2022-01-03T19:00:00Z,0.779,0.558,0.493,0.418,0.371,0.255,0.244,32.763,NaN
2022-01-03T20:00:00Z,0.727,0.522,0.458,0.390,0.349,0.238,0.232,30.634,NaN
2022-01-03T21:00:00Z,0.713,0.510,0.450,0.376,0.339,0.231,0.229,29.716,NaN
2022-01-03T22:00:00Z,0.689,0.498,0.441,0.367,0.323,0.183,0.176,23.530,NaN
2022-01-03T23:00:00Z,0.693,0.495,0.427,0.351,0.329,0.236,0.235,30.328,NaN
2022-01-04T00:00Z:00,0.684,0.494,0.431,0.349,0.318,0.180,0.180,23.107,NaN
2022-01-04T01:00:00Z,0.700,0.485,0.425,0.349,0.321,0.225,0.232,29.017,NaN
2022-01-04T02:00:00Z,0.677,0.490,0.430,0.348,0.316,0.172,0.186,22.078,NaN
2022-01-04T03:00:00Z,0.652,0.473,0.412,0.336,0.305,0.225,0.220,28.905,NaN
2022-01-04T04:00:00Z,0.659,0.465,0.404,0.344,0.297,0.235,0.220,30.181,NaN
2022-01-04T05:00:00Z,0.634,0.453,0.398,0.327,0.285,0.197,0.182,25.336,NaN
2022-01-04T06:00:00Z,0.628,0.443,0.387,0.321,0.272,0.191,0.177,24.589,NaN
2022-01-04T07:00:00Z,0.615,0.441,0.383,0.312,0.273,0.194,0.184,24.947,NaN
2022-01-04T08:00:00Z,0.593,0.420,0.360,0.302,0.256,0.196,0.180,25.268,NaN
2022-01-04T09:00:00Z,0.554,0.394,0.345,0.283,0.237,0.182,0.162,23.439,NaN
2022-01-04T10:00:00Z,0.564,0.382,0.328,0.283,0.229,0.174,0.166,22.444,NaN
2022-01-04T11:00:00Z,0.553,0.385,0.337,0.268,0.234,0.183,0.179,23.513,NaN
2022-01-04T12:00:00Z,0.541,0.364,0.315,0.262,0.234,0.220,0.215,28.373,NaN
2022-01-04T13:00:00Z,0.505,0.350,0.310,0.246,0.208,0.153,0.145,19.686,NaN
2022-01-04T14:00:00Z,0.516,0.358,0.309,0.254,0.224,0.243,0.234,31.312,NaN
2022-01-04T15:00:00Z,0.501,0.344,0.299,0.238,0.195,0.098,0.093,12.605,NaN
2022-01-04T16:00:00Z,0.474,0.348,0.300,0.245,0.203,0.139,0.130,17.854,NaN
2022-01-04T17:00:00Z,0.489,0.336,0.292,0.245,0.206,0.186,0.170,23.960,NaN
2022-01-04T18:00:00Z,0.507,0.355,0.306,0.257,0.214,0.144,0.133,18.557,NaN
2022-01-04T19:00:00Z,0.510,0.351,0.307,0.254,0.229,0.131,0.133,16.834,NaN
2022-01-04T20:00:00Z,0.510,0.356,0.308,0.253,0.225,0.124,0.129,15.973,NaN
2022-01-04T21:00:00Z,0.478,0.342,0.294,0.244,0.209,0.144,0.139,18.519,NaN
2022-01-04T22:00:00Z,0.525,0.346,0.306,0.257,0.213,0.156,0.148,20.089,NaN
2022-01-04T23:00:00Z,0.499,0.356,0.306,0.254,0.224,0.171,0.161,22.043,NaN
2022-01-05T00:00Z:00,0.492,0.333,0.292,0.234,0.200,0.148,0.139,18.994,NaN
2022-01-05T01:00:00Z,0.450,0.309,0.269,0.226,0.180,0.124,0.106,15.967,NaN
2022-01-05T02:00:00Z,0.410,0.276,0.233,0.198,0.152,0.114,0.103,14.660,NaN
2022-01-05T03:00:00Z,0.397,0.259,0.224,0.182,0.150,0.130,0.118,16.682,NaN
2022-01-05T04:00:00Z,0.381,0.245,0.211,0.173,0.135,0.108,0.107,13.842,NaN
2022-01-05T05:00:00Z,0.380,0.248,0.212,0.171,0.141,0.135,0.127,17.329,NaN
2022-01-05T06:00:00Z,0.365,0.235,0.203,0.162,0.135,0.131,0.129,16.798,NaN
2022-01-05T07:00:00Z,0.353,0.222,0.188,0.151,0.119,0.099,0.091,12.742,NaN
2022-01-05T08:00:00Z,0.331,0.211,0.187,0.149,0.122,0.129,0.127,16.617,NaN
2022-01-05T09:00:00Z,0.334,0.196,0.165,0.134,0.107,0.133,0.132,17.138,NaN
2022-01-05T10:00:00Z,0.298,0.192,0.157,0.110,0.087,0.044,0.052,5.651,NaN
2022-01-05T11:00:00Z,0.286,0.180,0.146,0.112,0.088,0.069,0.078,8.934,NaN
2022-01-05T12:00:00Z,0.276,0.161,0.132,0.094,0.070,0.049,0.059,6.245,NaN
2022-01-05T13:00:00Z,0.247,0.156,0.126,0.088,0.060,0.007,0.014,0.868,NaN
2022-01-05T14:00:00Z,0.252,0.135,0.105,0.078,0.062,0.082,0.093,10.582,NaN
2022-01-05T15:00:00Z,0.200,0.123,0.087,0.053,0.036,-0.005,0.003,-0.626,NaN
2022-01-05T16:00:00Z,0.209,0.109,0.089,0.059,0.035,0.030,0.038,3.814,NaN
2022-01-05T17:00:00Z,0.205,0.092,0.070,0.045,0.035,0.046,0.062,5.979,NaN
2022-01-05T18:00:00Z,0.184,0.086,0.063,0.038,0.030,0.074,0.087,9.509,NaN
2022-01-05T19:00:00Z,0.198,0.087,0.069,0.052,0.041,0.085,0.089,10.919,1.314
2022-01-05T20:00:00Z,0.224,0.098,0.088,0.067,0.055,0.123,0.134,15.843,1.591
2022-01-05T21:00:00Z,0.284,0.164,0.140,0.122,0.117,0.200,0.207,25.741,1.476
2022-01-05T22:00:00Z,0.304,0.167,0.152,0.128,0.107,0.173,0.167,22.297,1.386
2022-01-05T23:00:00Z,0.214,0.097,0.079,0.066,0.049,0.102,0.104,13.139,1.272
2022-01-06T00:00Z:00,0.121,0.077,0.046,0.027,0.002,-0.065,-0.046,-8.419,1.603
2022-01-06T01:00:00Z,0.136,0.070,0.045,0.020,0.006,-0.058,-0.041,-7.481,1.303
2022-01-06T02:00:00Z,0.239,0.140,0.115,0.101,0.075,0.084,0.083,10.755,1.753
2022-01-06T03:00:00Z,0.258,0.165,0.130,0.101,0.083,-0.024,-0.014,-3.082,1.969
2022-01-06T04:00:00Z,0.339,0.222,0.192,0.163,0.141,0.124,0.131,15.969,1.651
2022-01-06T05:00:00Z,0.317,0.214,0.180,0.145,0.130,0.028,0.033,3.590,1.860
2022-01-06T06:00:00Z,0.382,0.261,0.221,0.192,0.165,0.090,0.091,11.603,1.594
2022-01-06T07:00:00Z,0.402,0.267,0.240,0.199,0.174,0.088,0.092,11.385,1.938
2022-01-06T08:00:00Z,0.403,0.289,0.252,0.212,0.192,0.098,0.100,12.604,1.704
2022-01-06T09:00:00Z,0.431,0.284,0.251,0.213,0.187,0.166,0.156,21.339,2.045
2022-01-06T10:00:00Z,0.414,0.272,0.237,0.202,0.170,0.076,0.077,9.784,2.080
2022-01-06T11:00:00Z,0.393,0.286,0.241,0.207,0.186,0.144,0.143,18.593,1.989
2022-01-06T12:00:00Z,0.434,0.266,0.236,0.203,0.183,0.167,0.166,21.477,1.928
2022-01-06T13:00:00Z,0.422,0.247,0.223,0.190,0.185,0.237,0.245,30.459,1.731
2022-01-06T14:00:00Z,0.393,0.229,0.217,0.190,0.203,0.331,0.333,42.565,1.828
2022-01-06T15:00:00Z,0.308,0.167,0.149,0.133,0.114,0.153,0.144,19.693,1.726
2022-01-06T16:00:00Z,0.294,0.213,0.190,0.169,0.158,0.161,0.162,20.679,2.276
2022-01-06T17:00:00Z,0.287,0.204,0.176,0.163,0.142,0.121,0.113,15.524,2.723
2022-01-06T18:00:00Z,0.354,0.250,0.231,0.213,0.202,0.171,0.165,21.968,3.501
2022-01-06T19:00:00Z,0.381,0.286,0.252,0.230,0.188,0.111,0.105,14.242,3.896
2022-01-06T20:00:00Z,0.601,0.430,0.386,0.344,0.314,0.259,0.244,33.380,3.670
2022-01-06T21:00:00Z,0.588,0.435,0.383,0.334,0.304,0.207,0.205,26.626,3.749
2022-01-06T22:00:00Z,0.553,0.402,0.362,0.312,0.282,0.214,0.210,27.599,2.830
2022-01-06T23:00:00Z,0.527,0.382,0.339,0.300,0.273,0.208,0.202,26.744,2.916
2022-01-07T00:00Z:00,0.525,0.386,0.342,0.297,0.271,0.224,0.219,28.802,2.997
2022-01-07T01:00:00Z,0.528,0.368,0.335,0.294,0.270,0.212,0.211,27.319,2.875
2022-01-07T02:00:00Z,0.446,0.328,0.291,0.255,0.230,0.178,0.173,22.920,2.539
2022-01-07T03:00:00Z,0.405,0.292,0.244,0.215,0.190,0.124,0.114,15.935,2.209
2022-01-07T04:00:00Z,0.385,0.273,0.249,0.217,0.191,0.164,0.155,21.072,2.506
2022-01-07T05:00:00Z,0.390,0.271,0.236,0.212,0.183,0.139,0.123,17.893,2.422
2022-01-07T06:00:00Z,0.363,0.252,0.226,0.188,0.170,0.119,0.117,15.302,1.456
2022-01-07T07:00:00Z,0.314,0.224,0.189,0.171,0.150,0.113,0.102,14.550,1.686
2022-01-07T08:00:00Z,0.269,0.178,0.142,0.120,0.109,0.042,0.046,5.470,4.571
2022-01-07T09:00:00Z,0.261,0.175,0.158,0.126,0.124,0.096,0.107,12.369,1.638
2022-01-07T10:00:00Z,0.164,0.147,0.113,0.096,0.074,-0.009,-0.005,-1.120,1.191
2022-01-07T11:00:00Z,5.523,4.799,4.290,3.706,3.271,2.504,2.349,322.308,1.609
2022-01-07T12:00:00Z,0.499,0.385,0.342,0.301,0.262,0.194,0.183,24.977,1.567
2022-01-07T13:00:00Z,0.227,0.152,0.131,0.100,0.103,0.053,0.067,6.802,1.689
2022-01-07T14:00:00Z,NaN,NaN,NaN,NaN,NaN,NaN,NaN,NaN,1.371
2022-01-07T15:00:00Z,0.209,0.144,0.122,0.102,0.094,0.097,0.087,12.496,1.696
2022-01-07T16:00:00Z,0.220,0.130,0.116,0.100,0.087,0.065,0.063,8.361,1.437
2022-01-07T17:00:00Z,0.187,0.140,0.117,0.104,0.097,0.076,0.072,9.753,1.455
2022-01-07T18:00:00Z,0.201,0.132,0.111,0.094,0.082,0.054,0.053,6.983,1.655
2022-01-07T19:00:00Z,0.191,0.131,0.113,0.094,0.089,0.059,0.058,7.561,1.721
2022-01-07T20:00:00Z,0.209,0.142,0.132,0.105,0.100,0.090,0.074,11.598,1.259
2022-01-07T21:00:00Z,0.277,0.201,0.165,0.160,0.138,0.108,0.108,13.886,1.656
2022-01-07T22:00:00Z,0.251,0.187,0.160,0.142,0.122,0.099,0.085,12.784,1.541
2022-01-07T23:00:00Z,0.358,0.254,0.225,0.201,0.176,0.148,0.134,19.007,2.273
2022-01-08T00:00Z:00,0.333,0.235,0.216,0.186,0.174,0.165,0.159,21.213,1.952
2022-01-08T01:00:00Z,0.346,0.251,0.219,0.190,0.172,0.151,0.142,19.429,1.833
2022-01-08T02:00:00Z,0.300,0.213,0.198,0.179,0.163,0.142,0.137,18.256,1.819
2022-01-08T03:00:00Z,0.297,0.205,0.187,0.164,0.154,0.158,0.146,20.276,1.610
2022-01-08T04:00:00Z,0.291,0.213,0.188,0.164,0.152,0.116,0.115,14.901,1.767
2022-01-08T05:00:00Z,0.288,0.217,0.190,0.161,0.159,0.135,0.135,17.380,2.023
2022-01-08T06:00:00Z,0.292,0.208,0.192,0.173,0.160,0.163,0.155,20.949,1.760
2022-01-08T07:00:00Z,NaN,NaN,NaN,NaN,NaN,NaN,NaN,NaN,2.061
2022-01-08T08:00:00Z,0.304,0.227,0.200,0.175,0.174,0.159,0.165,20.405,2.100
2022-01-08T09:00:00Z,0.302,0.217,0.198,0.176,0.161,0.138,0.131,17.722,2.065
2022-01-08T10:00:00Z,0.341,0.245,0.225,0.203,0.198,0.212,0.211,27.270,2.691
2022-01-08T11:00:00Z,0.381,0.278,0.248,0.212,0.209,0.149,0.156,19.137,2.984
2022-01-08T12:00:00Z,0.388,0.311,0.287,0.245,0.234,0.206,0.205,26.466,3.469
2022-01-08T13:00:00Z,0.432,0.358,0.329,0.309,0.288,0.263,0.245,33.882,3.007
2022-01-08T14:00:00Z,0.514,0.434,0.409,0.388,0.351,0.310,0.285,39.888,2.721
2022-01-08T15:00:00Z,0.503,0.410,0.384,0.357,0.331,0.302,0.275,38.867,3.348
2022-01-08T16:00:00Z,0.480,0.387,0.355,0.330,0.293,0.269,0.248,34.557,2.792
2022-01-08T17:00:00Z,0.478,0.352,0.324,0.302,0.276,0.282,0.255,36.288,3.048
2022-01-08T18:00:00Z,0.410,0.332,0.311,0.268,0.258,0.208,0.211,26.749,2.523
2022-01-08T19:00:00Z,0.379,0.302,0.275,0.263,0.238,0.211,0.203,27.092,2.270
2022-01-08T20:00:00Z,0.315,0.253,0.235,0.203,0.195,0.161,0.160,20.660,2.474
2022-01-08T21:00:00Z,0.281,0.247,0.223,0.202,0.192,0.166,0.161,21.398,2.000
2022-01-08T22:00:00Z,0.283,0.214,0.193,0.176,0.171,0.155,0.151,19.932,1.776
2022-01-08T23:00:00Z,0.206,0.167,0.149,0.143,0.122,0.113,0.101,14.528,1.578
2022-01-09T00:00Z:00,0.152,0.130,0.114,0.110,0.109,0.102,0.094,13.096,1.414
2022-01-09T01:00:00Z,0.134,0.107,0.097,0.089,0.085,0.076,0.080,9.786,1.276
2022-01-09T02:00:00Z,0.134,0.112,0.102,0.095,0.105,0.114,0.123,14.651,0.956
2022-01-09T03:00:00Z,0.022,0.031,0.031,0.018,0.039,0.036,0.052,4.670,0.887
2022-01-09T04:00:00Z,0.024,0.028,0.024,0.036,0.048,0.103,0.102,13.278,1.074
2022-01-09T05:00:00Z,-0.050,-0.004,-0.003,-0.008,0.012,0.004,0.018,0.509,1.509
2022-01-09T06:00:00Z,-0.012,0.009,0.009,0.025,0.031,0.070,0.066,8.978,1.356
2022-01-09T07:00:00Z,-0.022,0.036,0.041,0.049,0.057,0.098,0.086,12.629,1.118
2022-01-09T08:00:00Z,-0.031,0.005,0.004,0.024,0.032,0.078,0.067,10.067,1.374
2022-01-09T09:00:00Z,-0.074,-0.015,-0.002,0.002,0.019,0.031,0.049,3.995,1.111
2022-01-09T10:00:00Z,-0.164,-0.037,-0.034,-0.027,-0.003,0.014,0.019,1.739,1.306
2022-01-09T11:00:00Z,-0.107,-0.030,-0.025,-0.003,-0.002,0.035,0.024,4.448,1.319
2022-01-09T12:00:00Z,-0.155,-0.038,-0.026,-0.010,0.002,0.032,0.029,4.110,1.407
2022-01-09T13:00:00Z,-0.131,-0.024,-0.009,0.011,0.036,0.089,0.090,11.495,1.510
2022-01-09T14:00:00Z,-0.209,-0.084,-0.074,-0.059,-0.053,-0.059,-0.058,-7.627,4.124
2022-01-09T15:00:00Z,-0.108,-0.004,0.006,0.019,0.028,0.062,0.058,8.023,5.427
2022-01-09T16:00:00Z,0.016,0.099,0.093,0.093,0.092,0.074,0.067,9.482,5.114
2022-01-09T17:00:00Z,0.023,0.100,0.088,0.083,0.080,0.065,0.056,8.356,4.900
2022-01-09T18:00:00Z,0.154,0.194,0.183,0.170,0.152,0.106,0.101,13.633,4.664
2022-01-09T19:00:00Z,0.105,0.187,0.174,0.150,0.141,0.077,0.084,9.934,5.575
2022-01-09T20:00:00Z,0.234,0.239,0.224,0.198,0.197,0.138,0.139,17.814,2.349
2022-01-09T21:00:00Z,0.154,0.197,0.178,0.163,0.160,0.149,0.146,19.148,2.150
2022-01-09T22:00:00Z,-0.011,0.048,0.043,0.034,0.049,0.034,0.044,4.315,1.537
2022-01-09T23:00:00Z,-0.005,0.071,0.065,0.054,0.067,0.046,0.053,5.920,1.825
2022-01-10T00:00Z:00,-0.046,0.035,0.032,0.031,0.022,-0.032,-0.032,-4.158,1.302
2022-01-10T01:00:00Z,-0.002,0.052,0.049,0.042,0.041,0.018,0.020,2.271,1.782
2022-01-10T02:00:00Z,0.007,0.064,0.055,0.053,0.051,0.034,0.025,4.342,1.596
2022-01-10T03:00:00Z,0.058,0.084,0.085,0.089,0.089,0.115,0.110,14.818,1.984
2022-01-10T04:00:00Z,0.042,0.096,0.075,0.059,0.039,-0.066,-0.060,-8.506,1.765
2022-01-10T05:00:00Z,0.150,0.136,0.129,0.114,0.125,0.138,0.134,17.811,1.297
2022-01-10T06:00:00Z,0.104,0.119,0.114,0.099,0.092,0.049,0.048,6.267,1.560
2022-01-10T07:00:00Z,0.130,0.129,0.114,0.102,0.107,0.111,0.109,14.234,1.289
2022-01-10T08:00:00Z,0.094,0.103,0.095,0.082,0.076,0.016,0.019,2.058,1.061
2022-01-10T09:00:00Z,3.364,2.973,2.677,2.338,2.073,1.642,1.534,211.354,1.140
2022-01-10T10:00:00Z,0.196,0.195,0.183,0.144,0.132,0.041,0.033,5.213,1.188
2022-01-10T11:00:00Z,0.121,0.113,0.096,0.095,0.088,0.075,0.074,9.590,1.444
2022-01-10T12:00:00Z,0.157,0.115,0.112,0.108,0.121,0.190,0.180,24.437,1.341
2022-01-10T13:00:00Z,0.147,0.098,0.099,0.085,0.099,0.100,0.106,12.822,1.596
2022-01-10T14:00:00Z,0.133,0.127,0.118,0.109,0.117,0.115,0.127,14.784,2.041
2022-01-10T15:00:00Z,0.151,0.125,0.119,0.115,0.120,0.124,0.122,15.919,2.358
2022-01-10T16:00:00Z,0.194,0.148,0.151,0.149,0.146,0.167,0.154,21.548,2.811
2022-01-10T17:00:00Z,0.255,0.216,0.208,0.199,0.196,0.202,0.196,26.030,3.383
2022-01-10T18:00:00Z,0.281,0.249,0.239,0.224,0.221,0.204,0.193,26.288,3.770
2022-01-10T19:00:00Z,0.368,0.292,0.276,0.269,0.254,0.255,0.244,32.874,2.988
2022-01-10T20:00:00Z,0.347,0.285,0.274,0.264,0.252,0.248,0.233,31.883,2.684
2022-01-10T21:00:00Z,0.194,0.172,0.161,0.155,0.150,0.125,0.123,16.040,2.447
2022-01-10T22:00:00Z,0.257,0.223,0.215,0.217,0.210,0.249,0.223,32.018,1.203
2022-01-10T23:00:00Z,0.132,0.101,0.097,0.104,0.089,0.086,0.075,11.027,1.093
2022-01-11T00:00Z:00,-0.063,-0.045,-0.037,-0.020,-0.012,NaN,0.005,0.018,1.037
2022-01-11T01:00:00Z,-0.078,-0.050,-0.039,-0.027,-0.023,-0.023,-0.023,-2.936,1.035
2022-01-11T02:00:00Z,-0.045,-0.026,-0.027,-0.019,-0.004,-0.004,-0.004,-0.530,1.049
2022-01-11T03:00:00Z,-0.029,-0.009,-0.004,-0.007,0.003,-0.007,0.003,-0.930,0.889
2022-01-11T04:00:00Z,-0.055,-0.023,-0.021,-0.018,-0.007,-0.023,-0.017,-3.011,0.948
2022-01-11T05:00:00Z,-0.010,-0.016,-0.013,-0.015,0.006,-0.004,0.011,-0.544,1.147
2022-01-11T06:00:00Z,-0.072,-0.035,-0.025,-0.031,-0.012,-0.030,-0.014,-3.798,1.352
2022-01-11T07:00:00Z,-0.055,-0.035,-0.034,-0.046,-0.016,-0.066,-0.033,-8.535,1.632
2022-01-11T08:00:00Z,-0.009,0.001,0.010,0.010,0.031,0.049,0.065,6.272,4.854
2022-01-11T09:00:00Z,0.026,0.043,0.054,0.050,0.083,0.123,0.130,15.854,1.616
2022-01-11T10:00:00Z,-0.054,-0.020,-0.030,-0.043,-0.032,-0.134,-0.101,-17.190,1.309
2022-01-11T11:00:00Z,0.076,0.034,0.040,0.036,0.062,0.060,0.074,7.681,1.325
2022-01-11T12:00:00Z,0.066,0.043,0.053,0.035,0.069,0.056,0.083,7.239,1.354
2022-01-11T13:00:00Z,-0.007,0.010,0.012,0.003,0.030,0.018,0.031,2.255,1.704
2022-01-11T14:00:00Z,-0.018,0.014,0.014,0.039,0.031,0.083,0.064,10.705,1.396
2022-01-11T15:00:00Z,-0.023,-0.013,-0.007,0.013,-0.004,0.053,0.024,6.851,1.278
2022-01-11T16:00:00Z,0.035,0.021,0.044,0.078,0.063,0.131,0.102,16.914,1.204
2022-01-11T17:00:00Z,-0.045,-0.022,-0.023,0.010,-0.008,0.042,0.008,5.394,0.962
2022-01-11T18:00:00Z,0.007,NaN,0.013,0.051,0.028,0.125,0.083,16.036,1.804
2022-01-11T19:00:00Z,-0.016,-0.020,-0.007,0.027,0.023,0.081,0.057,10.363,1.841
2022-01-11T20:00:00Z,-0.018,-0.017,-0.011,0.005,0.003,0.028,0.017,3.629,2.011
2022-01-11T21:00:00Z,0.040,0.024,0.032,0.055,0.070,0.128,0.123,16.534,1.698
2022-01-11T22:00:00Z,-0.055,-0.060,-0.045,-0.037,-0.017,-0.035,-0.020,-4.517,1.207
2022-01-11T23:00:00Z,-0.097,-0.064,-0.066,-0.064,-0.049,-0.078,-0.060,-10.080,1.141
2022-01-12T00:00Z:00,-0.014,-0.025,-0.003,0.009,0.040,0.069,0.085,8.874,1.602
2022-01-12T01:00:00Z,-0.128,-0.085,-0.081,-0.094,-0.066,-0.107,-0.089,-13.782,1.529
2022-01-12T02:00:00Z,-0.117,-0.060,-0.059,-0.073,-0.044,-0.091,-0.064,-11.726,2.097
2022-01-12T03:00:00Z,-0.001,0.008,0.012,0.032,0.017,0.054,0.043,6.996,2.643
2022-01-12T04:00:00Z,-0.005,0.018,0.021,0.024,0.024,0.029,0.010,3.730,3.085
2022-01-12T05:00:00Z,0.084,0.067,0.059,0.086,0.058,0.105,0.078,13.548,2.887
2022-01-12T06:00:00Z,0.151,0.080,0.085,0.106,0.103,0.145,0.127,18.701,2.387
2022-01-12T07:00:00Z,0.058,0.039,0.058,0.053,0.068,0.071,0.080,9.081,2.389
2022-01-12T08:00:00Z,0.035,0.014,0.010,0.015,0.020,0.014,0.011,1.791,1.788
2022-01-12T09:00:00Z,-0.016,0.011,0.019,0.023,0.044,0.038,0.063,4.901,1.502
2022-01-12T10:00:00Z,-0.036,-0.019,-0.017,NaN,-0.006,0.033,NaN,4.252,1.332
2022-01-12T11:00:00Z,-0.017,-0.045,-0.040,-0.034,-0.017,-0.048,-0.017,-6.116,1.794
2022-01-12T12:00:00Z,-0.052,-0.035,-0.025,-0.051,-NaN,-0.047,0.002,-6.015,1.683
2022-01-12T13:00:00Z,-0.139,-0.039,-0.038,-0.045,-0.023,-0.051,-0.044,-6.566,1.377
2022-01-12T14:00:00Z,0.031,0.007,0.008,0.046,0.026,0.100,0.065,12.905,1.371
2022-01-12T15:00:00Z,-0.028,-0.015,NaN,0.027,0.009,0.069,0.040,8.941,1.129
2022-01-12T16:00:00Z,-0.082,-0.052,-0.050,-0.029,-0.041,-0.018,-0.041,-2.263,1.027
2022-01-12T17:00:00Z,-0.012,-0.028,-0.013,0.001,0.008,0.039,0.033,5.063,0.998
2022-01-12T18:00:00Z,-0.134,-0.078,-0.071,-0.062,-0.055,-0.057,-0.053,-7.283,0.705
2022-01-12T19:00:00Z,-0.021,-0.048,-0.038,-0.036,-0.010,-0.019,-0.003,-2.409,1.093
2022-01-12T20:00:00Z,-0.121,-0.065,-0.058,-0.050,-0.042,-0.054,-0.039,-6.923,1.005
2022-01-12T21:00:00Z,-0.114,-0.062,-0.061,-0.039,-0.044,-0.010,-0.029,-1.295,0.940
2022-01-12T22:00:00Z,-0.100,-0.073,-0.063,-0.056,-0.058,-0.048,-0.062,-6.150,0.892
2022-01-12T23:00:00Z,-0.054,-0.065,-0.059,-0.045,-0.053,-0.057,-0.055,-7.369,0.865
2022-01-13T00:00Z:00,-0.090,-0.035,-0.036,-0.045,-0.022,-0.050,-0.030,-6.377,0.944
2022-01-13T01:00:00Z,-0.030,-0.038,-0.028,-0.025,-0.014,-0.008,-0.004,-1.078,1.139
2022-01-13T02:00:00Z,-0.049,-0.033,-0.032,-0.025,-0.021,-0.022,-0.026,-2.800,0.966
2022-01-13T03:00:00Z,-0.039,-0.022,-0.015,-0.006,-0.011,0.010,0.006,1.273,1.363
2022-01-13T04:00:00Z,0.045,0.038,0.039,0.051,0.053,0.088,0.076,11.358,1.244
2022-01-13T05:00:00Z,0.129,0.109,0.099,0.094,0.072,0.055,0.039,7.123,1.149
2022-01-13T06:00:00Z,0.016,0.012,0.021,0.035,0.030,0.066,0.051,8.520,1.079
2022-01-13T07:00:00Z,0.009,0.016,0.013,0.024,0.006,0.008,-0.009,1.068,1.168
2022-01-13T08:00:00Z,0.020,0.020,0.029,0.034,0.031,0.060,0.043,7.698,1.297
2022-01-13T09:00:00Z,0.102,0.093,0.091,0.103,0.083,0.077,0.070,9.897,1.443
2022-01-13T10:00:00Z,0.067,0.017,0.014,-0.001,0.026,-0.021,0.007,-2.764,1.074
2022-01-13T11:00:00Z,-0.002,0.017,0.016,-0.027,0.034,-0.043,0.024,-5.492,1.172
2022-01-13T12:00:00Z,0.072,0.024,0.024,-0.015,0.043,-0.027,0.030,-3.473,3.475
2022-01-13T13:00:00Z,-0.014,0.035,0.034,-0.014,0.040,-0.064,0.001,-8.183,3.026
2022-01-13T14:00:00Z,-0.007,0.024,0.018,0.001,0.018,-0.042,-0.026,-5.397,2.236
2022-01-13T15:00:00Z,0.111,0.097,0.091,0.078,0.071,0.069,0.069,8.938,2.370
2022-01-13T16:00:00Z,0.123,0.086,0.080,0.088,0.073,0.076,0.061,9.747,1.752
2022-01-13T17:00:00Z,0.092,0.085,0.070,0.059,0.054,0.045,0.035,5.811,1.653
2022-01-13T18:00:00Z,0.096,0.055,0.058,0.070,0.039,0.041,0.022,5.341,2.295
2022-01-13T19:00:00Z,0.106,0.092,0.076,0.055,0.056,0.012,0.013,1.506,2.811
2022-01-13T20:00:00Z,0.153,0.173,0.151,0.138,0.114,0.075,0.060,9.608,3.433
2022-01-13T21:00:00Z,0.316,0.227,0.217,0.211,0.163,0.174,0.132,22.358,3.976
2022-01-13T22:00:00Z,0.397,0.291,0.261,0.243,0.217,0.198,0.172,25.547,4.279
2022-01-13T23:00:00Z,0.465,0.369,0.344,0.287,0.279,0.153,0.173,19.685,4.157
2022-01-14T00:00Z:00,0.482,0.418,0.382,0.325,0.313,0.229,0.236,29.524,4.082
2022-01-14T01:00:00Z,0.504,0.403,0.367,0.346,0.300,0.280,0.245,36.012,4.274
2022-01-14T02:00:00Z,0.497,0.418,0.391,0.356,0.319,0.284,0.258,36.571,4.835
2022-01-14T03:00:00Z,0.722,0.532,0.486,0.464,0.396,0.403,0.342,51.814,4.809
2022-01-14T04:00:00Z,0.767,0.630,0.587,0.511,0.465,0.329,0.319,42.337,4.367
2022-01-14T05:00:00Z,0.700,0.572,0.520,0.461,0.418,0.312,0.290,40.117,5.265
2022-01-14T06:00:00Z,0.718,0.604,0.551,0.486,0.438,0.325,0.303,41.890,4.545
2022-01-14T07:00:00Z,0.806,0.633,0.582,0.527,0.464,0.353,0.332,45.430,5.509
2022-01-14T08:00:00Z,0.797,0.663,0.600,0.519,0.453,0.255,0.228,32.797,4.628
2022-01-14T09:00:00Z,0.942,0.776,0.709,0.633,0.552,0.426,0.383,54.837,4.639
2022-01-14T10:00:00Z,0.943,0.748,0.683,0.624,0.545,0.471,0.424,60.638,4.197
2022-01-14T11:00:00Z,1.114,0.919,0.828,0.732,0.641,0.477,0.432,61.433,3.767
2022-01-14T12:00:00Z,0.770,0.598,0.556,0.506,0.442,0.396,0.353,50.955,4.933
2022-01-14T13:00:00Z,0.938,0.770,0.698,0.617,0.543,0.384,0.360,49.395,5.871
2022-01-14T14:00:00Z,1.421,1.162,1.055,0.929,0.834,0.636,0.592,81.862,5.303
2022-01-14T15:00:00Z,1.770,1.456,1.323,1.161,1.035,0.791,0.747,101.843,5.595
2022-01-14T16:00:00Z,1.514,1.232,1.134,1.019,0.916,0.776,0.721,99.855,7.551
2022-01-14T17:00:00Z,2.096,1.704,1.556,1.374,1.241,0.994,0.931,127.978,7.680
2022-01-14T18:00:00Z,2.483,2.034,1.851,1.639,1.464,1.155,1.084,148.624,7.499
2022-01-14T19:00:00Z,2.426,2.001,1.830,1.612,1.439,1.094,1.027,140.769,7.579